Find Starlink 31717

NORAD ID: 59385 Int'l Des: 2024-062 Owner: SPXS Country: US Constellation: starlink operational
LEOCIRCULAR

現在のビュー

3D地球を読み込み中...

About Starlink 31717

Starlink 31717 (NORAD 59385) is a starlink constellation satellite (v2 mini) launched Apr 2, 2024 by SPXS of US. It operates in LEO, CIRCULAR orbit with a mass of 730.00 kg.

次回通過

Passes for default location (London). Set your location on the main map for personalized predictions.

高度履歴

Loading altitude history...

軌道要素

1 59385U 24062M 26264.73001513 .00003101 00000-0 10286-3 0 9999
2 59385 53.1611 61.6992 0000540 142.9400 217.1640 15.34405999139723
Epoch: Sep 21, 2026 • Age: 32 hours

現在のステータス

高度 462.5 km
遠地点 / 近地点 N/A
速度 7.64 km/s
衛星直下点 13.55°N, 159.18°W
打ち上げ日 Apr 2, 2024
運用期間 2.4 years
タイプ internet

技術仕様

分類 Payload
質量 730.00 kg
乾燥質量 700.00 kg
長さ 0.30 m
スパン 29.00 m
形状 ? Box + pan
製造者 SPXS
バスタイプ Starlink V2M
フェーズステータス In Orbit
所有者/国 SPXS/US

Most Searched